| time (UTC) | temp C | wind direction | speed KPH | gust KPH | rain 1hr cm | rain 24hr cm | rain mn cm | humidity % | barometer mb |
| 20260906044237 | 13 | 284 | 0.0 | 0.0 | 0.00 | 0.00 | 0.00 | 84 | 1018.1 |
| 20260906043724 | 13 | 284 | 0.0 | 0.0 | 0.00 | 0.00 | 0.00 | 84 | 1018.0 |
| 20260906043232 | 13 | 283 | 0.0 | 0.0 | 0.00 | 0.00 | 0.00 | 83 | 1018.0 |
| 20260906042722 | 13 | 283 | 0.0 | 0.0 | 0.00 | 0.00 | 0.00 | 83 | 1018.1 |
| 20260906042230 | 13 | 284 | 0.0 | 0.0 | 0.00 | 0.00 | 0.00 | 82 | 1018.1 |
| 20260906041737 | 13 | 284 | 0.0 | 0.0 | 0.00 | 0.00 | 0.00 | 82 | 1018.1 |
| 20260906041223 | 13 | 284 | 0.0 | 0.0 | 0.00 | 0.00 | 0.00 | 81 | 1018.2 |
| 20260906040810 | 14 | 284 | 0.0 | 0.0 | 0.00 | 0.00 | 0.00 | 81 | 1018.2 |
| 20260906040738 | 14 | 284 | 0.0 | 0.0 | 0.00 | 0.00 | 0.00 | 81 | 1018.2 |
| 20260906040305 | 14 | 284 | 0.0 | 0.0 | 0.00 | 0.00 | 0.00 | 81 | 1018.2 |
| 20260906040234 | 14 | 284 | 0.0 | 0.0 | 0.00 | 0.00 | 0.00 | 81 | 1018.2 |
| 20260906035720 | 14 | 284 | 0.0 | 0.0 | 0.00 | 0.00 | 0.00 | 80 | 1018.2 |
| 20260906035228 | 14 | 284 | 0.0 | 0.0 | 0.00 | 0.00 | 0.00 | 80 | 1018.3 |
| 20260906034733 | 14 | 284 | 0.0 | 0.0 | 0.00 | 0.00 | 0.00 | 79 | 1018.2 |
| 20260906034220 | 15 | 284 | 0.0 | 0.0 | 0.00 | 0.00 | 0.00 | 78 | 1018.2 |
| 20260906033727 | 15 | 284 | 0.0 | 0.0 | 0.00 | 0.00 | 0.00 | 77 | 1018.1 |
| 20260906033254 | 15 | 284 | 0.0 | 0.0 | 0.00 | 0.00 | 0.00 | 77 | 1018.0 |
| 20260906033222 | 15 | 284 | 0.0 | 0.0 | 0.00 | 0.00 | 0.00 | 77 | 1018.0 |
| 20260906032729 | 15 | 284 | 0.0 | 0.0 | 0.00 | 0.00 | 0.00 | 76 | 1018.0 |
| 20260906032240 | 15 | 284 | 0.0 | 0.0 | 0.00 | 0.00 | 0.00 | 76 | 1018.0 |
| 20260906031726 | 15 | 284 | 0.0 | 0.0 | 0.00 | 0.00 | 0.00 | 76 | 1017.9 |
| 20260906031233 | 16 | 284 | 0.0 | 0.0 | 0.00 | 0.00 | 0.00 | 75 | 1017.7 |
| 20260906030800 | 16 | 284 | 0.0 | 0.0 | 0.00 | 0.00 | 0.00 | 74 | 1017.7 |
| 20260906030728 | 16 | 284 | 0.0 | 0.0 | 0.00 | 0.00 | 0.00 | 74 | 1017.7 |
| 20260906030235 | 16 | 284 | 0.0 | 0.0 | 0.00 | 0.00 | 0.00 | 73 | 1017.6 |
| 20260906025722 | 16 | 284 | 0.0 | 0.0 | 0.00 | 0.00 | 0.00 | 72 | 1017.6 |
| 20260906025230 | 16 | 283 | 0.0 | 0.0 | 0.00 | 0.00 | 0.00 | 70 | 1017.7 |
| 20260906024303 | 17 | 284 | 0.0 | 0.0 | 0.00 | 0.00 | 0.00 | 70 | 1017.7 |
| 20260906023740 | 17 | 284 | 0.0 | 0.0 | 0.00 | 0.00 | 0.00 | 69 | 1017.8 |
| 20260906023221 | 17 | 284 | 0.0 | 0.0 | 0.00 | 0.00 | 0.00 | 67 | 1017.8 |
| 20260906022809 | 17 | 284 | 0.0 | 0.0 | 0.00 | 0.00 | 0.00 | 66 | 1017.7 |
| 20260906022225 | 17 | 284 | 0.0 | 0.0 | 0.00 | 0.00 | 0.00 | 66 | 1017.6 |
| 20260906021735 | 17 | 284 | 0.0 | 0.0 | 0.00 | 0.00 | 0.00 | 65 | 1017.5 |
| 20260906021302 | 18 | 284 | 0.0 | 0.0 | 0.00 | 0.00 | 0.00 | 65 | 1017.6 |
| 20260906021230 | 18 | 284 | 0.0 | 0.0 | 0.00 | 0.00 | 0.00 | 65 | 1017.6 |
| 20260906020732 | 18 | 284 | 0.0 | 0.0 | 0.00 | 0.00 | 0.00 | 62 | 1017.7 |
| 20260906020259 | 18 | 277 | 0.0 | 0.0 | 0.00 | 0.00 | 0.00 | 63 | 1017.7 |
| 20260906020227 | 18 | 277 | 0.0 | 0.0 | 0.00 | 0.00 | 0.00 | 63 | 1017.7 |
| 20260906015734 | 18 | 277 | 0.0 | 0.0 | 0.00 | 0.00 | 0.00 | 61 | 1017.6 |
| 20260906015240 | 18 | 277 | 0.0 | 0.0 | 0.00 | 0.00 | 0.00 | 60 | 1017.7 |
| 20260906014726 | 19 | 277 | 0.0 | 3.2 | 0.00 | 0.00 | 0.00 | 59 | 1017.7 |
| 20260906014233 | 19 | 277 | 1.6 | 3.2 | 0.00 | 0.00 | 0.00 | 58 | 1017.8 |
| 20260906013800 | 20 | 277 | 0.0 | 0.0 | 0.00 | 0.00 | 0.00 | 56 | 1017.8 |
| 20260906013728 | 20 | 277 | 0.0 | 0.0 | 0.00 | 0.00 | 0.00 | 56 | 1017.8 |
| 20260906013235 | 20 | 277 | 0.0 | 1.6 | 0.00 | 0.00 | 0.00 | 57 | 1017.6 |
| 20260906012722 | 20 | 277 | 0.0 | 1.6 | 0.00 | 0.00 | 0.00 | 57 | 1017.7 |
| 20260906012231 | 20 | 277 | 1.6 | 3.2 | 0.00 | 0.00 | 0.00 | 55 | 1017.7 |
| 20260906011757 | 20 | 287 | 0.0 | 3.2 | 0.00 | 0.00 | 0.00 | 55 | 1017.6 |
| 20260906011725 | 20 | 287 | 0.0 | 3.2 | 0.00 | 0.00 | 0.00 | 55 | 1017.6 |
| 20260906011252 | 21 | 234 | 0.0 | 3.2 | 0.00 | 0.00 | 0.00 | 54 | 1017.5 |
| 20260906010728 | 21 | 232 | 0.0 | 3.2 | 0.00 | 0.00 | 0.00 | 51 | 1017.5 |
| 20260906010235 | 21 | 202 | 1.6 | 3.2 | 0.00 | 0.00 | 0.00 | 51 | 1017.5 |
| 20260906005726 | 21 | 239 | 0.0 | 3.2 | 0.00 | 0.00 | 0.00 | 53 | 1017.5 |
| 20260906005254 | 21 | 242 | 1.6 | 3.2 | 0.00 | 0.00 | 0.00 | 52 | 1017.5 |
| 20260906004728 | 21 | 333 | 1.6 | 4.8 | 0.00 | 0.00 | 0.00 | 53 | 1017.5 |
| 20260906004235 | 21 | 300 | 0.0 | 4.8 | 0.00 | 0.00 | 0.00 | 53 | 1017.5 |
| 20260906003802 | 20 | 26 | 1.6 | 3.2 | 0.00 | 0.00 | 0.00 | 54 | 1017.6 |
| 20260906003730 | 20 | 26 | 1.6 | 3.2 | 0.00 | 0.00 | 0.00 | 54 | 1017.6 |
| 20260906003237 | 20 | 317 | 1.6 | 3.2 | 0.00 | 0.00 | 0.00 | 56 | 1017.5 |
| 20260906002724 | 20 | 217 | 0.0 | 3.2 | 0.00 | 0.00 | 0.00 | 57 | 1017.5 |
| 20260906002232 | 20 | 264 | 0.0 | 3.2 | 0.00 | 0.00 | 0.00 | 56 | 1017.5 |
| 20260906001738 | 20 | 263 | 0.0 | 4.8 | 0.00 | 0.00 | 0.00 | 56 | 1017.4 |
| 20260906001225 | 20 | 355 | 1.6 | 4.8 | 0.00 | 0.00 | 0.00 | 57 | 1017.5 |
| 20260906000732 | 20 | 172 | 1.6 | 4.8 | 0.00 | 0.00 | 0.00 | 56 | 1017.4 |
| 20260906000256 | 20 | 99 | 1.6 | 4.8 | 0.00 | 0.00 | 0.00 | 56 | 1017.6 |
| 20260906000222 | 20 | 99 | 1.6 | 4.8 | 0.00 | 0.00 | 0.00 | 56 | 1017.6 |
| 20260905235729 | 20 | 106 | 0.0 | 3.2 | 0.00 | 0.00 | 0.00 | 57 | 1017.6 |
| 20260905235221 | 20 | 106 | 1.6 | 3.2 | 0.00 | 0.00 | 0.00 | 55 | 1017.6 |
| 20260905234807 | 20 | 348 | 0.0 | 3.2 | 0.00 | 0.00 | 0.00 | 57 | 1017.7 |
| 20260905234222 | 20 | 81 | 0.0 | 3.2 | 0.00 | 0.00 | 0.00 | 57 | 1017.7 |
| 20260905233809 | 20 | 55 | 1.6 | 3.2 | 0.00 | 0.00 | 0.00 | 57 | 1017.7 |
| 20260905233305 | 20 | 149 | 1.6 | 3.2 | 0.00 | 0.00 | 0.00 | 55 | 1017.8 |
| 20260905232720 | 20 | 164 | 0.0 | 3.2 | 0.00 | 0.00 | 0.00 | 55 | 1017.7 |
| 20260905232228 | 20 | 196 | 1.6 | 4.8 | 0.00 | 0.00 | 0.00 | 55 | 1017.7 |
| 20260905231754 | 20 | 202 | 1.6 | 4.8 | 0.00 | 0.03 | 0.00 | 55 | 1017.6 |
| 20260905231230 | 20 | 173 | 1.6 | 4.8 | 0.00 | 0.03 | 0.00 | 55 | 1017.7 |
| 20260905230737 | 20 | 310 | 1.6 | 4.8 | 0.00 | 0.03 | 0.00 | 53 | 1017.8 |
| 20260905230224 | 20 | 93 | 1.6 | 8.0 | 0.00 | 0.03 | 0.00 | 53 | 1018.0 |
| 20260905225731 | 20 | 93 | 3.2 | 8.0 | 0.00 | 0.03 | 0.00 | 54 | 1017.9 |
| 20260905225240 | 20 | 330 | 3.2 | 8.0 | 0.00 | 0.03 | 0.00 | 54 | 1017.9 |
| 20260905224725 | 19 | 70 | 1.6 | 4.8 | 0.00 | 0.03 | 0.00 | 55 | 1018.0 |
| 20260905224236 | 19 | 131 | 1.6 | 4.8 | 0.00 | 0.03 | 0.00 | 57 | 1018.1 |
| 20260905223723 | 19 | 140 | 0.0 | 4.8 | 0.00 | 0.03 | 0.00 | 58 | 1018.1 |
| 20260905223311 | 18 | 95 | 1.6 | 6.4 | 0.00 | 0.03 | 0.00 | 59 | 1018.0 |
| 20260905223239 | 18 | 95 | 1.6 | 6.4 | 0.00 | 0.03 | 0.00 | 59 | 1018.0 |
| 20260905222726 | 18 | 84 | 1.6 | 6.4 | 0.00 | 0.03 | 0.00 | 60 | 1018.1 |
| 20260905222234 | 18 | 38 | 1.6 | 6.4 | 0.00 | 0.03 | 0.00 | 60 | 1018.2 |
| 20260905221800 | 18 | 80 | 3.2 | 6.4 | 0.00 | 0.03 | 0.00 | 62 | 1018.2 |
| 20260905221235 | 18 | 53 | 4.8 | 6.4 | 0.00 | 0.03 | 0.00 | 61 | 1018.3 |
| 20260905220722 | 17 | 63 | 1.6 | 3.2 | 0.00 | 0.03 | 0.00 | 64 | 1018.4 |
| 20260905220229 | 17 | 167 | 0.0 | 3.2 | 0.00 | 0.03 | 0.00 | 64 | 1018.5 |
| 20260905215736 | 17 | 191 | 0.0 | 3.2 | 0.00 | 0.03 | 0.00 | 66 | 1018.7 |
| 20260905215224 | 17 | 96 | 1.6 | 3.2 | 0.00 | 0.03 | 0.00 | 65 | 1018.7 |
| 20260905214730 | 17 | 18 | 0.0 | 3.2 | 0.00 | 0.03 | 0.00 | 66 | 1018.7 |
| 20260905214221 | 17 | 119 | 1.6 | 4.8 | 0.00 | 0.03 | 0.00 | 67 | 1018.7 |
| 20260905213728 | 17 | 130 | 1.6 | 4.8 | 0.00 | 0.03 | 0.00 | 66 | 1018.7 |
| 20260905213234 | 16 | 113 | 1.6 | 4.8 | 0.00 | 0.03 | 0.00 | 67 | 1018.7 |
| 20260905212721 | 16 | 105 | 1.6 | 4.8 | 0.00 | 0.03 | 0.00 | 66 | 1018.7 |
| 20260905212229 | 16 | 124 | 1.6 | 6.4 | 0.00 | 0.03 | 0.00 | 68 | 1018.6 |
| 20260905211735 | 16 | 203 | 0.0 | 6.4 | 0.00 | 0.03 | 0.00 | 69 | 1018.7 |
| 20260905211222 | 16 | 93 | 3.2 | 6.4 | 0.00 | 0.03 | 0.00 | 69 | 1018.6 |
| 20260905210809 | 16 | 72 | 1.6 | 4.8 | 0.00 | 0.03 | 0.00 | 70 | 1018.6 |
| 20260905210224 | 16 | 104 | 1.6 | 4.8 | 0.00 | 0.03 | 0.00 | 71 | 1018.7 |
| 20260905205731 | 16 | 100 | 1.6 | 4.8 | 0.00 | 0.03 | 0.00 | 71 | 1018.8 |
| 20260905205222 | 16 | 94 | 3.2 | 4.8 | 0.00 | 0.03 | 0.00 | 72 | 1018.8 |
| 20260905204728 | 16 | 67 | 1.6 | 3.2 | 0.00 | 0.03 | 0.00 | 72 | 1018.8 |
| 20260905204235 | 16 | 95 | 1.6 | 3.2 | 0.00 | 0.03 | 0.00 | 73 | 1018.8 |
| 20260905203802 | 16 | 107 | 1.6 | 3.2 | 0.00 | 0.03 | 0.00 | 73 | 1018.8 |
| 20260905203237 | 16 | 67 | 1.6 | 4.8 | 0.00 | 0.03 | 0.00 | 74 | 1018.8 |
| 20260905202724 | 16 | 92 | 1.6 | 6.4 | 0.00 | 0.03 | 0.00 | 74 | 1018.8 |
| 20260905202313 | 16 | 88 | 1.6 | 6.4 | 0.00 | 0.03 | 0.00 | 74 | 1018.9 |
| 20260905202241 | 16 | 88 | 1.6 | 6.4 | 0.00 | 0.03 | 0.00 | 74 | 1018.9 |
| 20260905201807 | 15 | 74 | 1.6 | 6.4 | 0.00 | 0.03 | 0.00 | 74 | 1018.9 |
| 20260905201222 | 15 | 68 | 1.6 | 6.4 | 0.00 | 0.03 | 0.00 | 73 | 1018.9 |
| 20260905200808 | 15 | 103 | 3.2 | 6.4 | 0.00 | 0.03 | 0.00 | 73 | 1019.0 |
| 20260905200736 | 15 | 103 | 3.2 | 6.4 | 0.00 | 0.03 | 0.00 | 73 | 1019.0 |
| 20260905200223 | 16 | 126 | 4.8 | 6.4 | 0.00 | 0.03 | 0.00 | 73 | 1019.0 |
| 20260905195730 | 16 | 65 | 1.6 | 3.2 | 0.00 | 0.03 | 0.00 | 73 | 1019.0 |
| 20260905195238 | 16 | 65 | 1.6 | 3.2 | 0.00 | 0.03 | 0.00 | 73 | 1019.0 |
| 20260905194724 | 16 | 119 | 1.6 | 3.2 | 0.00 | 0.03 | 0.00 | 72 | 1019.0 |
| 20260905194230 | 16 | 88 | 0.0 | 4.8 | 0.00 | 0.03 | 0.00 | 71 | 1019.0 |
| 20260905193736 | 16 | 79 | 3.2 | 4.8 | 0.00 | 0.03 | 0.00 | 70 | 1019.1 |
| 20260905193223 | 16 | 70 | 1.6 | 3.2 | 0.00 | 0.03 | 0.00 | 69 | 1019.0 |
| 20260905192730 | 16 | 108 | 1.6 | 3.2 | 0.00 | 0.03 | 0.00 | 68 | 1019.2 |
| 20260905192258 | 16 | 76 | 0.0 | 3.2 | 0.00 | 0.03 | 0.00 | 70 | 1019.2 |
| 20260905192226 | 16 | 76 | 0.0 | 3.2 | 0.00 | 0.03 | 0.00 | 70 | 1019.2 |
| 20260905191732 | 16 | 185 | 0.0 | 3.2 | 0.00 | 0.03 | 0.00 | 70 | 1019.2 |
| 20260905191239 | 16 | 117 | 0.0 | 3.2 | 0.00 | 0.03 | 0.00 | 69 | 1019.3 |
| 20260905190726 | 16 | 77 | 0.0 | 3.2 | 0.00 | 0.03 | 0.00 | 70 | 1019.2 |
| 20260905190253 | 16 | 93 | 1.6 | 3.2 | 0.00 | 0.03 | 0.00 | 70 | 1019.3 |
| 20260905190221 | 16 | 93 | 1.6 | 3.2 | 0.00 | 0.03 | 0.00 | 70 | 1019.3 |
| 20260905185728 | 16 | 331 | 0.0 | 8.0 | 0.00 | 0.03 | 0.00 | 69 | 1019.2 |
| 20260905185236 | 16 | 103 | 3.2 | 6.4 | 0.00 | 0.03 | 0.00 | 71 | 1019.2 |
| 20260905184722 | 16 | 205 | 3.2 | 6.4 | 0.00 | 0.03 | 0.00 | 72 | 1019.3 |
| 20260905184229 | 16 | 80 | 1.6 | 4.8 | 0.00 | 0.03 | 0.00 | 72 | 1019.3 |
| 20260905183756 | 16 | 123 | 1.6 | 6.4 | 0.00 | 0.03 | 0.00 | 74 | 1019.4 |
| 20260905183252 | 16 | 163 | 0.0 | 6.4 | 0.00 | 0.03 | 0.00 | 73 | 1019.4 |
| 20260905183220 | 16 | 163 | 0.0 | 6.4 | 0.00 | 0.03 | 0.00 | 73 | 1019.4 |
| 20260905182731 | 15 | 85 | 1.6 | 6.4 | 0.00 | 0.03 | 0.00 | 73 | 1019.4 |
| 20260905182238 | 15 | 74 | 1.6 | 6.4 | 0.00 | 0.03 | 0.00 | 72 | 1019.5 |
| 20260905181724 | 15 | 109 | 4.8 | 6.4 | 0.00 | 0.03 | 0.00 | 72 | 1019.5 |
| 20260905181231 | 15 | 166 | 0.0 | 3.2 | 0.00 | 0.03 | 0.00 | 73 | 1019.6 |
| 20260905180738 | 15 | 128 | 0.0 | 3.2 | 0.00 | 0.03 | 0.00 | 73 | 1019.5 |
| 20260905180225 | 15 | 126 | 0.0 | 4.8 | 0.00 | 0.03 | 0.00 | 73 | 1019.6 |
| 20260905175732 | 15 | 92 | 3.2 | 4.8 | 0.00 | 0.03 | 0.00 | 74 | 1019.6 |
| 20260905175240 | 15 | 82 | 1.6 | 3.2 | 0.00 | 0.03 | 0.00 | 74 | 1019.6 |
| 20260905174726 | 15 | 98 | 1.6 | 4.8 | 0.00 | 0.03 | 0.00 | 74 | 1019.6 |
| 20260905174233 | 15 | 101 | 3.2 | 4.8 | 0.00 | 0.03 | 0.00 | 74 | 1019.6 |
| 20260905173724 | 15 | 95 | 1.6 | 4.8 | 0.00 | 0.03 | 0.00 | 75 | 1019.5 |
| 20260905173231 | 15 | 60 | 1.6 | 4.8 | 0.00 | 0.03 | 0.00 | 74 | 1019.5 |
| 20260905172758 | 15 | 106 | 1.6 | 4.8 | 0.00 | 0.03 | 0.00 | 74 | 1019.4 |
| 20260905172234 | 14 | 81 | 1.6 | 4.8 | 0.00 | 0.03 | 0.00 | 75 | 1019.4 |
| 20260905171720 | 14 | 108 | 1.6 | 4.8 | 0.00 | 0.05 | 0.00 | 75 | 1019.4 |
| 20260905171227 | 14 | 105 | 4.8 | 4.8 | 0.00 | 0.05 | 0.00 | 74 | 1019.3 |
| 20260905170734 | 14 | 144 | 1.6 | 6.4 | 0.00 | 0.05 | 0.00 | 74 | 1019.4 |
| 20260905170221 | 15 | 107 | 3.2 | 6.4 | 0.00 | 0.05 | 0.00 | 75 | 1019.4 |
| 20260905165728 | 15 | 117 | 3.2 | 6.4 | 0.00 | 0.05 | 0.00 | 76 | 1019.4 |
| 20260905165237 | 15 | 104 | 3.2 | 9.7 | 0.00 | 0.05 | 0.00 | 75 | 1019.4 |
| 20260905164803 | 15 | 118 | 3.2 | 8.0 | 0.00 | 0.05 | 0.00 | 76 | 1019.2 |
| 20260905164259 | 15 | 77 | 4.8 | 9.7 | 0.00 | 0.05 | 0.00 | 74 | 1019.3 |
| 20260905163734 | 15 | 109 | 3.2 | 6.4 | 0.00 | 0.05 | 0.00 | 74 | 1019.3 |
| 20260905163300 | 15 | 84 | 1.6 | 3.2 | 0.00 | 0.05 | 0.00 | 74 | 1019.3 |
| 20260905162755 | 15 | 65 | 1.6 | 6.4 | 0.00 | 0.05 | 0.00 | 74 | 1019.2 |
| 20260905162253 | 15 | 101 | 3.2 | 6.4 | 0.00 | 0.05 | 0.00 | 73 | 1019.3 |
| 20260905161731 | 15 | 105 | 3.2 | 8.0 | 0.00 | 0.05 | 0.00 | 73 | 1019.1 |
| 20260905161238 | 15 | 128 | 1.6 | 8.0 | 0.00 | 0.05 | 0.00 | 73 | 1019.1 |
| 20260905160725 | 15 | 130 | 1.6 | 6.4 | 0.00 | 0.05 | 0.00 | 73 | 1019.0 |
| 20260905160232 | 15 | 122 | 3.2 | 6.4 | 0.00 | 0.05 | 0.00 | 73 | 1019.1 |
| 20260905155739 | 15 | 113 | 1.6 | 4.8 | 0.00 | 0.05 | 0.00 | 74 | 1019.0 |
| 20260905155306 | 15 | 118 | 1.6 | 3.2 | 0.00 | 0.05 | 0.00 | 75 | 1019.1 |
| 20260905155235 | 15 | 118 | 1.6 | 3.2 | 0.00 | 0.05 | 0.00 | 75 | 1019.1 |
| 20260905154739 | 15 | 227 | 1.6 | 3.2 | 0.00 | 0.05 | 0.00 | 75 | 1019.1 |
| 20260905154226 | 15 | 138 | 1.6 | 3.2 | 0.00 | 0.05 | 0.00 | 75 | 1019.1 |
| 20260905153733 | 15 | 155 | 1.6 | 3.2 | 0.00 | 0.05 | 0.00 | 77 | 1019.0 |
| 20260905153259 | 14 | 11 | 0.0 | 3.2 | 0.00 | 0.05 | 0.00 | 81 | 1019.1 |
| 20260905152754 | 13 | 80 | 1.6 | 3.2 | 0.00 | 0.05 | 0.00 | 82 | 1019.0 |
| 20260905152722 | 13 | 80 | 1.6 | 3.2 | 0.00 | 0.05 | 0.00 | 82 | 1019.0 |
| 20260905152230 | 13 | 84 | 1.6 | 4.8 | 0.00 | 0.05 | 0.00 | 85 | 1019.0 |
| 20260905151756 | 13 | 94 | 1.6 | 4.8 | 0.00 | 0.05 | 0.00 | 86 | 1019.1 |
| 20260905151231 | 12 | 101 | 0.0 | 3.2 | 0.00 | 0.05 | 0.00 | 89 | 1019.0 |
| 20260905150722 | 12 | 75 | 1.6 | 3.2 | 0.00 | 0.05 | 0.00 | 91 | 1019.0 |
| 20260905150229 | 11 | 71 | 0.0 | 3.2 | 0.00 | 0.05 | 0.00 | 94 | 1018.8 |
| 20260905145735 | 11 | 97 | 0.0 | 0.0 | 0.00 | 0.05 | 0.00 | 95 | 1018.8 |
| 20260905145223 | 10 | 97 | 0.0 | 0.0 | 0.00 | 0.05 | 0.00 | 95 | 1018.8 |
| 20260905144810 | 10 | 96 | 0.0 | 0.0 | 0.00 | 0.05 | 0.00 | 95 | 1018.8 |
| 20260905144305 | 10 | 96 | 0.0 | 0.0 | 0.00 | 0.05 | 0.00 | 94 | 1018.7 |
| 20260905143800 | 10 | 96 | 0.0 | 0.0 | 0.00 | 0.05 | 0.00 | 94 | 1018.6 |
| 20260905143256 | 10 | 97 | 0.0 | 0.0 | 0.00 | 0.05 | 0.00 | 94 | 1018.6 |
| 20260905142811 | 10 | 96 | 0.0 | 0.0 | 0.00 | 0.05 | 0.00 | 94 | 1018.5 |
| 20260905142227 | 10 | 97 | 0.0 | 0.0 | 0.00 | 0.05 | 0.00 | 94 | 1018.5 |
| 20260905141733 | 10 | 97 | 0.0 | 0.0 | 0.00 | 0.08 | 0.00 | 94 | 1018.5 |
| 20260905141300 | 10 | 96 | 0.0 | 3.2 | 0.00 | 0.08 | 0.00 | 94 | 1018.4 |
| 20260905140755 | 10 | 97 | 0.0 | 3.2 | 0.00 | 0.08 | 0.00 | 94 | 1018.4 |
| 20260905140311 | 10 | 84 | 0.0 | 0.0 | 0.00 | 0.08 | 0.00 | 94 | 1018.4 |
| 20260905135807 | 10 | 84 | 0.0 | 0.0 | 0.00 | 0.08 | 0.00 | 94 | 1018.4 |
| 20260905135223 | 10 | 84 | 0.0 | 0.0 | 0.00 | 0.08 | 0.00 | 94 | 1018.4 |
| 20260905134729 | 9 | 84 | 0.0 | 0.0 | 0.00 | 0.08 | 0.00 | 94 | 1018.2 |
| 20260905134256 | 9 | 84 | 0.0 | 0.0 | 0.00 | 0.08 | 0.00 | 94 | 1018.3 |
| 20260905134224 | 9 | 84 | 0.0 | 0.0 | 0.00 | 0.08 | 0.00 | 94 | 1018.3 |
| 20260905133731 | 9 | 84 | 0.0 | 0.0 | 0.00 | 0.08 | 0.00 | 94 | 1018.3 |
| 20260905133238 | 9 | 84 | 0.0 | 0.0 | 0.00 | 0.08 | 0.00 | 94 | 1018.2 |
| 20260905132725 | 9 | 84 | 0.0 | 0.0 | 0.00 | 0.08 | 0.00 | 95 | 1018.3 |
| 20260905132233 | 9 | 84 | 0.0 | 0.0 | 0.00 | 0.08 | 0.00 | 95 | 1018.2 |
| 20260905131723 | 9 | 84 | 0.0 | 0.0 | 0.00 | 0.08 | 0.00 | 95 | 1018.3 |
| 20260905131231 | 9 | 84 | 0.0 | 0.0 | 0.00 | 0.08 | 0.00 | 95 | 1018.2 |
| 20260905130735 | 9 | 84 | 0.0 | 0.0 | 0.00 | 0.08 | 0.00 | 95 | 1018.3 |
| 20260905130302 | 9 | 84 | 0.0 | 0.0 | 0.00 | 0.08 | 0.00 | 95 | 1018.3 |
| 20260905125737 | 9 | 84 | 0.0 | 0.0 | 0.00 | 0.08 | 0.00 | 94 | 1018.3 |
| 20260905125225 | 9 | 84 | 0.0 | 0.0 | 0.00 | 0.08 | 0.00 | 94 | 1018.1 |
| 20260905124731 | 9 | 84 | 0.0 | 0.0 | 0.00 | 0.08 | 0.00 | 94 | 1018.1 |
| 20260905124259 | 9 | 84 | 0.0 | 0.0 | 0.00 | 0.08 | 0.00 | 94 | 1018.1 |
| 20260905123734 | 9 | 84 | 0.0 | 0.0 | 0.00 | 0.08 | 0.00 | 94 | 1018.2 |
| 20260905123221 | 9 | 84 | 0.0 | 0.0 | 0.00 | 0.08 | 0.00 | 94 | 1018.2 |
| 20260905122808 | 9 | 84 | 0.0 | 0.0 | 0.00 | 0.08 | 0.00 | 94 | 1018.2 |
| 20260905122736 | 9 | 84 | 0.0 | 0.0 | 0.00 | 0.08 | 0.00 | 94 | 1018.2 |
| 20260905122224 | 9 | 84 | 0.0 | 0.0 | 0.00 | 0.08 | 0.00 | 94 | 1018.1 |
| 20260905121810 | 8 | 84 | 0.0 | 0.0 | 0.00 | 0.08 | 0.00 | 94 | 1018.1 |
| 20260905121738 | 8 | 84 | 0.0 | 0.0 | 0.00 | 0.08 | 0.00 | 94 | 1018.1 |
| 20260905121225 | 9 | 84 | 0.0 | 0.0 | 0.00 | 0.08 | 0.00 | 94 | 1018.2 |
| 20260905120752 | 9 | 84 | 0.0 | 0.0 | 0.00 | 0.08 | 0.00 | 94 | 1018.1 |
| 20260905120720 | 9 | 84 | 0.0 | 0.0 | 0.00 | 0.08 | 0.00 | 94 | 1018.1 |
| 20260905120231 | 9 | 84 | 0.0 | 0.0 | 0.00 | 0.08 | 0.00 | 94 | 1018.1 |
| 20260905115738 | 9 | 84 | 0.0 | 0.0 | 0.00 | 0.08 | 0.00 | 94 | 1018.1 |
| 20260905115227 | 9 | 84 | 0.0 | 0.0 | 0.00 | 0.08 | 0.00 | 94 | 1018.1 |
| 20260905114753 | 9 | 84 | 0.0 | 0.0 | 0.00 | 0.08 | 0.00 | 94 | 1018.2 |
| 20260905114721 | 9 | 84 | 0.0 | 0.0 | 0.00 | 0.08 | 0.00 | 94 | 1018.2 |
| 20260905114228 | 9 | 84 | 0.0 | 0.0 | 0.00 | 0.08 | 0.00 | 94 | 1018.1 |
| 20260905113734 | 9 | 84 | 0.0 | 0.0 | 0.00 | 0.08 | 0.00 | 94 | 1018.1 |
| 20260905113301 | 9 | 84 | 0.0 | 0.0 | 0.00 | 0.08 | 0.00 | 94 | 1018.0 |
| 20260905112757 | 8 | 84 | 0.0 | 0.0 | 0.00 | 0.08 | 0.00 | 94 | 1018.0 |
| 20260905112253 | 8 | 84 | 0.0 | 0.0 | 0.00 | 0.08 | 0.00 | 94 | 1018.0 |
| 20260905111807 | 8 | 84 | 0.0 | 0.0 | 0.00 | 0.10 | 0.00 | 94 | 1018.0 |
| 20260905111304 | 8 | 84 | 0.0 | 0.0 | 0.00 | 0.10 | 0.00 | 93 | 1017.9 |
| 20260905110739 | 8 | 84 | 0.0 | 0.0 | 0.00 | 0.10 | 0.00 | 93 | 1017.9 |
| 20260905110226 | 8 | 84 | 0.0 | 0.0 | 0.00 | 0.10 | 0.00 | 93 | 1017.9 |
| 20260905105733 | 8 | 84 | 0.0 | 0.0 | 0.00 | 0.10 | 0.00 | 93 | 1017.9 |
| 20260905105301 | 9 | 84 | 0.0 | 0.0 | 0.00 | 0.10 | 0.00 | 93 | 1017.7 |
| 20260905104735 | 9 | 84 | 0.0 | 0.0 | 0.00 | 0.10 | 0.00 | 93 | 1017.8 |
| 20260905104222 | 9 | 84 | 0.0 | 0.0 | 0.00 | 0.10 | 0.00 | 93 | 1017.9 |
| 20260905103729 | 9 | 84 | 0.0 | 0.0 | 0.00 | 0.10 | 0.00 | 94 | 1017.8 |
| 20260905103220 | 9 | 84 | 0.0 | 0.0 | 0.00 | 0.10 | 0.00 | 93 | 1017.8 |
| 20260905102727 | 9 | 84 | 0.0 | 0.0 | 0.00 | 0.10 | 0.00 | 93 | 1017.8 |
| 20260905102235 | 9 | 84 | 0.0 | 0.0 | 0.00 | 0.10 | 0.00 | 93 | 1017.7 |
| 20260905101800 | 9 | 84 | 0.0 | 0.0 | 0.00 | 0.10 | 0.00 | 93 | 1017.7 |
| 20260905101235 | 9 | 84 | 0.0 | 0.0 | 0.00 | 0.10 | 0.00 | 93 | 1017.7 |
| 20260905100802 | 9 | 84 | 0.0 | 0.0 | 0.00 | 0.10 | 0.00 | 93 | 1017.7 |
| 20260905100731 | 9 | 84 | 0.0 | 0.0 | 0.00 | 0.10 | 0.00 | 93 | 1017.7 |
| 20260905100257 | 9 | 84 | 0.0 | 0.0 | 0.00 | 0.10 | 0.00 | 93 | 1017.6 |
| 20260905100225 | 9 | 84 | 0.0 | 0.0 | 0.00 | 0.10 | 0.00 | 93 | 1017.6 |
| 20260905095732 | 9 | 84 | 0.0 | 0.0 | 0.00 | 0.10 | 0.00 | 93 | 1017.6 |
| 20260905095300 | 9 | 84 | 0.0 | 0.0 | 0.00 | 0.10 | 0.00 | 93 | 1017.8 |
| 20260905094734 | 9 | 84 | 0.0 | 0.0 | 0.00 | 0.10 | 0.00 | 93 | 1017.6 |
| 20260905094301 | 10 | 84 | 0.0 | 0.0 | 0.00 | 0.10 | 0.00 | 93 | 1017.6 |
| 20260905094229 | 10 | 84 | 0.0 | 0.0 | 0.00 | 0.10 | 0.00 | 93 | 1017.6 |
| 20260905093736 | 10 | 84 | 0.0 | 0.0 | 0.00 | 0.10 | 0.00 | 92 | 1017.7 |
| 20260905093304 | 10 | 84 | 0.0 | 0.0 | 0.00 | 0.10 | 0.00 | 93 | 1017.8 |
| 20260905092759 | 10 | 84 | 0.0 | 0.0 | 0.00 | 0.10 | 0.00 | 93 | 1017.7 |
| 20260905092255 | 10 | 84 | 0.0 | 0.0 | 0.00 | 0.10 | 0.00 | 93 | 1017.7 |
| 20260905092223 | 10 | 84 | 0.0 | 0.0 | 0.00 | 0.10 | 0.00 | 93 | 1017.7 |
| 20260905091729 | 10 | 84 | 0.0 | 0.0 | 0.00 | 0.10 | 0.00 | 93 | 1017.6 |
| 20260905091256 | 10 | 84 | 0.0 | 0.0 | 0.00 | 0.10 | 0.00 | 93 | 1017.7 |
| 20260905090731 | 10 | 84 | 0.0 | 0.0 | 0.00 | 0.10 | 0.00 | 92 | 1017.7 |
| 20260905090238 | 10 | 84 | 0.0 | 0.0 | 0.00 | 0.10 | 0.00 | 92 | 1017.7 |
| 20260905085806 | 10 | 84 | 0.0 | 0.0 | 0.00 | 0.10 | 0.00 | 92 | 1017.6 |
| 20260905085222 | 10 | 84 | 0.0 | 0.0 | 0.00 | 0.10 | 0.00 | 92 | 1017.6 |
| 20260905084732 | 10 | 84 | 0.0 | 0.0 | 0.00 | 0.10 | 0.00 | 92 | 1017.7 |
| 20260905084240 | 10 | 84 | 0.0 | 0.0 | 0.00 | 0.10 | 0.00 | 92 | 1017.7 |
| 20260905083726 | 10 | 84 | 0.0 | 0.0 | 0.00 | 0.10 | 0.00 | 92 | 1017.7 |
| 20260905083226 | 10 | 84 | 0.0 | 0.0 | 0.00 | 0.10 | 0.00 | 92 | 1017.7 |
| 20260905082733 | 10 | 84 | 0.0 | 0.0 | 0.00 | 0.10 | 0.00 | 92 | 1017.6 |
| 20260905082301 | 10 | 84 | 0.0 | 0.0 | 0.00 | 0.10 | 0.00 | 91 | 1017.5 |
| 20260905081734 | 10 | 84 | 0.0 | 1.6 | 0.00 | 0.13 | 0.10 | 91 | 1017.5 |
| 20260905081241 | 10 | 84 | 0.0 | 1.6 | 0.00 | 0.13 | 0.10 | 91 | 1017.5 |
| 20260905080804 | 10 | 84 | 0.0 | 3.2 | 0.00 | 0.13 | 0.10 | 91 | 1017.5 |
| 20260905080235 | 11 | 84 | 0.0 | 3.2 | 0.00 | 0.13 | 0.10 | 91 | 1017.4 |
| 20260905075721 | 11 | 84 | 0.0 | 0.0 | 0.00 | 0.13 | 0.10 | 92 | 1017.4 |
| 20260905075230 | 11 | 84 | 0.0 | 0.0 | 0.00 | 0.13 | 0.10 | 91 | 1017.5 |
| 20260905074736 | 11 | 84 | 0.0 | 0.0 | 0.00 | 0.13 | 0.10 | 91 | 1017.5 |
| 20260905074302 | 11 | 84 | 0.0 | 0.0 | 0.00 | 0.13 | 0.10 | 91 | 1017.5 |
| 20260905074230 | 11 | 84 | 0.0 | 0.0 | 0.00 | 0.13 | 0.10 | 91 | 1017.5 |
| 20260905073720 | 11 | 84 | 0.0 | 0.0 | 0.00 | 0.13 | 0.10 | 90 | 1017.5 |
| 20260905073307 | 11 | 84 | 0.0 | 0.0 | 0.00 | 0.13 | 0.10 | 90 | 1017.5 |
| 20260905072722 | 11 | 84 | 0.0 | 0.0 | 0.00 | 0.13 | 0.10 | 90 | 1017.5 |
| 20260905072231 | 11 | 84 | 0.0 | 0.0 | 0.00 | 0.13 | 0.10 | 90 | 1017.5 |
| 20260905071736 | 11 | 84 | 0.0 | 0.0 | 0.00 | 0.13 | 0.10 | 90 | 1017.5 |
| 20260905071304 | 11 | 84 | 0.0 | 0.0 | 0.00 | 0.13 | 0.10 | 90 | 1017.4 |
| 20260905070739 | 11 | 84 | 0.0 | 0.0 | 0.00 | 0.13 | 0.10 | 90 | 1017.4 |
| 20260905070307 | 11 | 84 | 0.0 | 3.2 | 0.00 | 0.13 | 0.10 | 89 | 1017.4 |
| 20260905065722 | 11 | 84 | 0.0 | 3.2 | 0.00 | 0.13 | 0.10 | 89 | 1017.2 |
| 20260905065230 | 12 | 109 | 0.0 | 0.0 | 0.00 | 0.13 | 0.10 | 89 | 1017.2 |
| 20260905064757 | 12 | 109 | 0.0 | 0.0 | 0.00 | 0.13 | 0.10 | 89 | 1017.1 |
| 20260905064232 | 12 | 109 | 0.0 | 0.0 | 0.00 | 0.13 | 0.10 | 89 | 1017.0 |
| 20260905063759 | 12 | 109 | 0.0 | 0.0 | 0.00 | 0.13 | 0.10 | 89 | 1017.0 |
| 20260905063254 | 12 | 109 | 0.0 | 0.0 | 0.00 | 0.13 | 0.10 | 89 | 1016.9 |
| 20260905062728 | 12 | 109 | 0.0 | 0.0 | 0.00 | 0.13 | 0.10 | 89 | 1017.0 |
| 20260905062236 | 12 | 109 | 0.0 | 0.0 | 0.00 | 0.13 | 0.10 | 89 | 1016.9 |
| 20260905061726 | 12 | 109 | 0.0 | 0.0 | 0.00 | 0.15 | 0.10 | 88 | 1017.0 |
| 20260905061254 | 12 | 109 | 0.0 | 0.0 | 0.00 | 0.15 | 0.10 | 88 | 1016.9 |
| 20260905060806 | 12 | 109 | 0.0 | 0.0 | 0.00 | 0.15 | 0.10 | 88 | 1016.8 |
| 20260905060225 | 12 | 109 | 0.0 | 0.0 | 0.00 | 0.15 | 0.10 | 88 | 1016.9 |
| 20260905055752 | 12 | 109 | 0.0 | 0.0 | 0.00 | 0.15 | 0.10 | 88 | 1016.9 |
| 20260905055229 | 12 | 109 | 0.0 | 0.0 | 0.00 | 0.15 | 0.10 | 87 | 1016.9 |
| 20260905054735 | 12 | 109 | 0.0 | 0.0 | 0.00 | 0.15 | 0.10 | 87 | 1016.8 |
| 20260905054302 | 12 | 109 | 0.0 | 0.0 | 0.00 | 0.15 | 0.10 | 87 | 1016.8 |
| 20260905053737 | 12 | 109 | 0.0 | 0.0 | 0.00 | 0.15 | 0.10 | 87 | 1016.8 |
| 20260905053224 | 12 | 109 | 0.0 | 0.0 | 0.00 | 0.15 | 0.10 | 87 | 1016.8 |
| 20260905052731 | 12 | 109 | 0.0 | 0.0 | 0.00 | 0.15 | 0.10 | 86 | 1016.8 |
| 20260905052258 | 13 | 109 | 0.0 | 0.0 | 0.00 | 0.15 | 0.10 | 86 | 1016.9 |
| 20260905051733 | 13 | 109 | 0.0 | 0.0 | 0.00 | 0.18 | 0.10 | 86 | 1016.9 |
| 20260905051239 | 13 | 109 | 0.0 | 0.0 | 0.00 | 0.18 | 0.10 | 86 | 1017.0 |
| 20260905050721 | 13 | 109 | 0.0 | 0.0 | 0.00 | 0.18 | 0.10 | 85 | 1017.0 |
| 20260905050309 | 13 | 109 | 0.0 | 0.0 | 0.00 | 0.18 | 0.10 | 85 | 1017.0 |
| 20260905045804 | 13 | 109 | 0.0 | 0.0 | 0.00 | 0.18 | 0.10 | 85 | 1017.0 |
| 20260905045732 | 13 | 109 | 0.0 | 0.0 | 0.00 | 0.18 | 0.10 | 85 | 1017.0 |
| 20260905045240 | 13 | 109 | 0.0 | 0.0 | 0.00 | 0.18 | 0.10 | 85 | 1017.0 |
| 20260905044730 | 13 | 109 | 0.0 | 0.0 | 0.00 | 0.18 | 0.10 | 85 | 1017.0 |